Starlink 32423

operational
NORAD ID: 61218 Int'l Des: 2024-171 Owner: SPXS Country: US Constellation: starlink
LEOCIRCULAR

关于 Starlink 32423

正在加载描述...

实时位置

正在加载3D地球...

即将过境

高度历史

Altitude vs Time

uPlot chart will show altitude changes over time

两行轨道根数

1 61218U 24171U 25258.61523963 .00000146 00000-0 17029-4 0 9994
2 61218 53.1604 55.6572 0000357 86.6450 273.4591 15.30192208 56477
Epoch: Sep 15, 2025 • Age: 10 hours

当前状态

高度 479.8 km
速度 7.63 km/s
星下点 -16.52°S, 124.46°W
发射日期 Sep 20, 2024
运行时间 0.9 years
类型 internet

技术详情

分类 Payload
质量 730.00 kg
干质量 700.00 kg
总质量 730.00 kg
长度 0.30 m
直径 4.10 m
跨度 29.00 m
形状 Box + pan
制造商 SPXS
平台类型 Starlink V2M
阶段状态 In Orbit
所有者/国家 SPXS/US

大型星座

Loading constellations...